DW8248 Weather Reports


time (UTC)temp
C
wind
direction
speed
KPH
gust
KPH
rain 1hr
cm
rain 24hr
cm
rain mn
cm
humidity
%
barometer
mb
20260904135756 30 215 12.9 17.7 0.00 0.00 0.00 78 1015.6
20260904134741 30 215 11.3 16.1 0.00 0.00 0.00 79 1015.5
20260904133718 29 198 9.7 12.9 0.00 0.00 0.00 79 1015.4
20260904132738 29 202 8.0 12.9 0.00 0.00 0.00 80 1015.4
20260904131711 29 186 3.2 6.4 0.00 0.00 0.00 82 1015.4
20260904125540 28 184 4.8 8.0 0.00 0.00 0.00 82 1015.4
20260904124548 28 167 4.8 8.0 0.00 0.00 0.00 83 1015.3
20260904123547 28 186 4.8 8.0 0.00 0.00 0.00 84 1015.3
20260904122555 28 182 6.4 8.0 0.00 0.00 0.00 84 1015.2
20260904121557 28 200 6.4 12.9 0.00 0.00 0.00 84 1015.2
20260904115426 28 192 8.0 11.3 0.00 0.00 0.00 84 1014.9
20260904114411 28 188 9.7 12.9 0.00 0.00 0.00 84 1014.8
20260904113354 28 191 8.0 14.5 0.00 0.00 0.00 83 1014.6
20260904112333 28 185 11.3 16.1 0.00 0.00 0.00 83 1014.5
20260904111322 28 190 11.3 16.1 0.00 0.00 0.00 82 1014.4
20260904103927 28 155 6.4 12.9 0.00 0.00 0.00 83 1014.0
20260904102921 28 144 4.8 11.3 0.00 0.00 0.00 83 1014.2
20260904100817 28 158 6.4 11.3 0.00 0.00 0.00 83 1014.0
20260904095806 28 155 8.0 14.5 0.00 0.00 0.00 83 1014.0
20260904094729 28 175 9.7 16.1 0.00 0.00 0.00 82 1013.9
20260904093713 28 167 9.7 16.1 0.00 0.00 0.00 82 1013.7
20260904091524 29 0 9.7 16.1 0.00 0.00 0.00 82 1013.5
20260904090538 29 137 8.0 16.1 0.00 0.00 0.00 83 1013.5
20260904083244 29 148 9.7 14.5 0.00 0.00 0.00 83 1013.5
20260904082213 29 158 8.0 14.5 0.00 0.00 0.00 83 1013.4
20260904081225 29 159 8.0 16.1 0.00 0.00 0.00 82 1013.4
20260904080208 29 153 9.7 16.1 0.00 0.00 0.00 82 1013.3
20260904075154 29 150 11.3 16.1 0.00 0.00 0.00 82 1013.3
20260904073034 28 0 8.0 14.5 0.00 0.00 0.00 84 1013.3
20260904071958 28 137 9.7 14.5 0.00 0.00 0.00 85 1013.2
20260904070950 28 151 6.4 14.5 0.00 0.00 0.00 85 1013.3
20260904065939 28 163 6.4 12.9 0.00 0.00 0.00 86 1013.4
20260904064939 28 0 6.4 14.5 0.00 0.00 0.00 86 1013.6
20260904063938 28 0 8.0 14.5 0.00 0.00 0.00 86 1013.6
20260904062920 28 140 4.8 12.9 0.00 0.00 0.00 87 1013.6
20260904061921 28 152 4.8 12.9 0.00 0.00 0.00 86 1013.8
20260904060914 28 0 3.2 6.4 0.00 0.00 0.00 86 1013.9
20260904055908 28 142 1.6 4.8 0.00 0.00 0.00 86 1014.0
20260904054921 28 0 3.2 4.8 0.00 0.00 0.00 86 1014.0
20260904052755 28 119 1.6 3.2 0.00 0.00 0.00 85 1014.4
20260904051800 28 130 0.0 3.2 0.00 0.00 0.00 85 1014.4
20260904050745 28 159 0.0 0.0 0.00 0.00 0.00 85 1014.5
20260904043437 28 139 1.6 6.4 0.00 0.00 0.00 83 1014.4
20260904042410 28 0 3.2 11.3 0.00 0.00 0.00 83 1014.5
20260904041425 28 0 6.4 12.9 0.00 0.00 0.00 82 1014.5
20260904040415 28 157 8.0 16.1 0.00 0.00 0.00 81 1014.5
20260904033126 28 136 8.0 17.7 0.00 0.00 0.00 82 1014.4
20260904032049 28 0 8.0 17.7 0.00 0.00 0.00 82 1014.5
20260904031104 28 172 11.3 19.3 0.00 0.00 0.00 82 1014.6
20260904030028 28 0 11.3 19.3 0.00 0.00 0.00 82 1014.6
20260904025025 28 107 8.0 16.1 0.00 0.00 0.00 81 1014.7
20260904024006 28 159 6.4 16.1 0.00 0.00 0.00 83 1014.6
20260904023000 28 0 6.4 14.5 0.00 0.00 0.00 83 1014.5
20260904021953 28 125 6.4 14.5 0.00 0.00 0.00 83 1014.4
20260904020943 28 157 4.8 14.5 0.00 0.00 0.00 83 1014.5
20260904014739 28 146 9.7 16.1 0.00 0.00 0.00 84 1014.5
20260904013740 28 117 6.4 12.9 0.00 0.00 0.00 84 1014.5
20260904012723 28 149 4.8 14.5 0.00 0.00 0.00 84 1014.4
20260904010645 28 160 6.4 12.9 0.00 0.00 0.00 83 1014.2
20260904005659 28 139 6.4 12.9 0.00 0.00 0.00 83 1014.2
20260904004657 28 123 8.0 14.5 0.00 0.00 0.00 83 1014.2
20260904003651 28 131 8.0 16.1 0.00 0.00 0.00 83 1014.3
20260904002700 28 142 8.0 16.1 0.00 0.00 0.00 83 1014.2
20260904001627 28 127 3.2 11.3 0.00 0.00 0.00 84 1014.3
20260904000612 28 138 3.2 11.3 0.00 0.00 0.00 84 1014.3
20260903235617 28 0 4.8 11.3 0.00 0.00 0.00 83 1014.0
20260903234636 28 101 3.2 9.7 0.00 0.00 0.00 83 1013.9
20260903233619 28 167 4.8 11.3 0.00 0.00 0.00 82 1013.8
20260903232639 28 143 6.4 14.5 0.00 0.00 0.00 82 1013.8
20260903231627 28 148 6.4 14.5 0.00 0.00 0.00 82 1013.8
20260903230632 28 110 6.4 17.7 0.00 0.00 0.00 82 1013.8
20260903225558 28 134 6.4 17.7 0.00 0.00 0.00 82 1013.8
20260903224545 28 120 8.0 19.3 0.00 0.00 0.00 82 1013.6
20260903223532 28 148 9.7 19.3 0.00 0.00 0.00 81 1013.6
20260903222511 28 123 8.0 16.1 0.00 0.00 0.00 82 1013.5
20260903221500 29 145 8.0 17.7 0.00 0.00 0.00 81 1013.5
20260903220442 29 136 8.0 17.7 0.00 0.00 0.00 79 1013.4
20260903215432 29 132 9.7 16.1 0.00 0.00 0.00 80 1013.1
20260903214400 29 112 6.4 16.1 0.00 0.00 0.00 80 1013.4
20260903213330 29 123 8.0 19.3 0.00 0.00 0.00 79 1013.5
20260903212322 28 129 9.7 19.3 0.00 0.00 0.00 79 1013.5
20260903211249 28 146 8.0 17.7 0.00 0.00 0.00 81 1013.2
20260903204034 28 78 8.0 20.9 0.00 0.00 0.00 82 1012.5
20260903203007 28 106 11.3 20.9 0.00 0.00 0.00 81 1012.9
20260903201938 28 105 9.7 17.7 0.00 0.00 0.00 81 1013.1
20260903195839 28 105 8.0 19.3 0.00 0.00 0.00 83 1013.2
20260903194839 28 98 6.4 20.9 0.00 0.00 0.00 82 1013.4
20260903193808 28 99 9.7 20.9 0.00 0.00 0.00 82 1013.5
20260903192750 28 0 6.4 17.7 0.00 0.00 0.00 82 1013.6
20260903191753 28 153 6.4 19.3 0.00 0.00 0.00 83 1013.7
20260903190735 28 115 8.0 19.3 0.00 0.00 0.00 82 1013.7
20260903185738 28 53 8.0 17.7 0.00 0.00 0.00 82 1013.7
20260903182514 29 105 9.7 22.5 0.00 0.00 0.00 82 1014.3
20260903181518 29 82 8.0 19.3 0.00 0.00 0.00 82 1014.1
20260903180520 29 115 9.7 20.9 0.00 0.00 0.00 82 1014.2
20260903175504 28 102 11.3 20.9 0.00 0.00 0.00 82 1014.5
20260903174515 28 103 9.7 20.9 0.00 0.00 0.00 83 1014.5
20260903173513 28 86 9.7 17.7 0.00 0.00 0.00 83 1014.5
20260903172456 28 63 9.7 20.9 0.00 0.00 0.00 82 1014.3
20260903171420 28 90 11.3 20.9 0.00 0.00 0.00 82 1014.2
20260903170344 28 105 8.0 16.1 0.00 0.00 0.00 82 1014.5
20260903164230 28 25 6.4 14.5 0.00 0.00 0.00 81 1014.7
20260903163228 28 44 6.4 17.7 0.00 0.00 0.00 81 1014.9
20260903160002 28 94 4.8 12.9 0.00 0.00 0.00 80 1015.4
20260903154955 28 64 4.8 11.3 0.00 0.00 0.00 80 1015.4
20260903154002 28 65 3.2 8.0 0.00 0.00 0.00 80 1015.4
20260903153004 28 48 3.2 8.0 0.00 0.00 0.00 80 1015.4
20260903150859 28 51 3.2 9.7 0.00 0.00 0.00 80 1015.5
20260903145912 28 74 3.2 8.0 0.00 0.00 0.00 80 1015.4
20260903144855 28 40 3.2 8.0 0.00 0.00 0.00 79 1015.4
20260903143847 29 36 1.6 6.4 0.00 0.00 0.00 78 1015.3
20260903142853 28 55 0.0 0.0 0.00 0.00 0.00 75 1015.1
20260903141841 28 55 0.0 0.0 0.00 0.00 0.00 76 1014.9
20260903140831 28 150 0.0 0.0 0.00 0.00 0.00 77 1014.9
20260903135829 28 159 1.6 4.8 0.00 0.00 0.00 78 1014.8